Voltar ao catálogo

STARLINK-4580

AtivoComunicaçõesVLEO
NORAD 53579·PAYLOAD·🇺🇸 United States

Lançado Aug 19, 2022 de Cape Canaveral Space Force Station

Loading…

Próximas Passagens (próximas 24 horas)

TLE

AtualizadoSource: CelesTrak SupGP

Época: Sep 14, 2026, 21:26 UTC

1 53579C 22101BE  26257.89354167  .00046490  00000+0  13741-2 0  2577
2 53579  53.1562 270.0247 0001077 100.8331 110.6808 15.34355340    14

Acompanhe STARLINK-4580 em tempo real com AllMySat

Download on the App Store